Regional Weather Roundup
Issued by NWS

Home | Current Version | Previous Version | Text Only | Print | Product List | Glossary On
Versions: 1 2 3 4 5 6 7 8 9 10 11 12 13 14 15 16 17 18 19 20 21 22 23 24 25 26 27 28 29 30 31 32 33 34 35 36 37 38 39 40 41 42 43 44 45 46 47 48 49 50
000
ASUS43 KMKX 240820
RWRWI

WISCONSIN REGIONAL WEATHER ROUNDUP
NATIONAL WEATHER SERVICE MILWAUKEE/SULLIVAN WI
200 AM CST WED JAN 24 2018

NOTE: "FAIR" INDICATES FEW OR NO CLOUDS BELOW 12,000 FEET WITH NO
SIGNIFICANT WEATHER AND/OR OBSTRUCTIONS TO VISIBILITY.

WIZ001-002-006>008-014>016-023>028-240900-
NORTHWEST WISCONSIN

CITY           SKY/WX    TMP DP  RH WIND       PRES   REMARKS
SUPERIOR ARPT  FAIR       4   1  87 CALM      30.20R
ASHLAND        CLOUDY    10   7  87 S5        30.19S WCI   2
HAYWARD        FAIR       3  -1  83 CALM      30.17R
SIREN          FAIR       1  -3  83 CALM      30.19R
CUMBERLAND     FAIR       3  -2  78 CALM      30.16S
RICE LAKE      FAIR       2  -1  86 CALM      30.19F
CHETEK         MOCLDY     6   3  89 CALM      30.19S
LADYSMITH      MOCLDY    11  10  93 CALM      30.18R
EAU CLAIRE     FAIR      10   8  92 CALM      30.19S
MENOMONIE      FAIR      10   8  89 CALM      30.21R
NEW RICHMOND   FAIR       1  -3  82 CALM      30.19S
OSCEOLA        FAIR       5   2  88 CALM      30.22R
$$

WIZ003>005-009-010-017-018-240900-
NORTH CENTRAL WISCONSIN

CITY           SKY/WX    TMP DP  RH WIND       PRES   REMARKS
MANITOWISH WTR CLOUDY    -1  -3  89 CALM      30.13R
ARBOR VITAE    FAIR       5   2  88 CALM      30.12R
WOODRUFF       FAIR       5   2  88 CALM      30.12R
RHINELANDER    FAIR       8   6  92 CALM      30.12S
EAGLE RIVER    FAIR       4   1  86 CALM      30.11S
LAND O LAKES   FAIR       6   3  90 CALM      30.14R
PHILLIPS       MOCLDY     1  -2  89 CALM      30.14R
TOMAHAWK       FAIR       4   1  88 CALM      30.14S
MEDFORD        FAIR      10   8  92 CALM      30.14R
MERRILL        FAIR      11  10  92 CALM      30.16R
$$

WIZ029-030-035-036-043>047-240900-
CENTRAL WISCONSIN

CITY           SKY/WX    TMP DP  RH WIND       PRES   REMARKS
WAUSAU         FAIR      17  11  77 N3        30.14S
MOSINEE        FAIR      16  14  93 N3        30.16R
MARSHFIELD     FAIR      15  11  83 N5        30.15R WCI   8
STEVENS POINT  FAIR      12  12  99 CALM      30.17R
WAUPACA        FAIR      19  14  81 N5        30.20R WCI  13
WAUTOMA        CLOUDY    22  19  89 NW3       30.19R
WISC RAPIDS    FAIR      16  11  80 CALM      30.18S
CAMP DOUGLAS   NOT AVBL
$$

WIZ011>013-019>022-031-037>040-048>050-240900-
NORTHEAST WISCONSIN

CITY           SKY/WX    TMP DP  RH WIND       PRES   REMARKS
ANTIGO         FAIR       5   3  91 CALM      30.13F
SHAWANO        FAIR      14  10  83 CALM      30.20R
OCONTO         FAIR      13   8  81 N3        30.21R
STURGEON BAY   FAIR      14   9  80 NW10      30.20R WCI   1
GREEN BAY      FAIR      17  11  77 N7        30.20R WCI   8
MANITOWOC      FAIR      18  13  80 N12       30.19R WCI   5
APPLETON       FAIR      18  10  73 N10       30.17R WCI   6
CLINTONVILLE   FAIR      16  10  79 N5        30.20R WCI   9
OSHKOSH        CLOUDY    21  14  74 N12       30.18R WCI   9
$$

WIZ032>034-041-042-053>061-240900-
SOUTHWEST WISCONSIN

CITY           SKY/WX    TMP DP  RH WIND       PRES   REMARKS
LA CROSSE      FAIR      20  17  88 CALM      30.22R
SPARTA         CLOUDY    21  19  91 CALM      30.22R
VIROQUA        CLOUDY    21  19  93 CALM      30.17S
BOSCOBEL       CLOUDY    26  19  74 CALM      30.21S
PRAIRIE DU CHI CLOUDY    24  16  70 NW6       30.21S WCI  17
PLATTEVILLE    CLOUDY    24  23  93 N3        30.19S
$$

WIZ056-057-062-063-064-067-068-240900-
SOUTH CENTRAL WISCONSIN

CITY           SKY/WX    TMP DP  RH WIND       PRES   REMARKS
REEDSBURG      CLOUDY    22  20  91 NW6       30.19R WCI  15
BARABOO/DELLS  CLOUDY    23  19  83 CALM      30.19R
LONE ROCK      CLOUDY    25  20  81 NW5       30.21R WCI  19
MINERAL POINT  CLOUDY    27  25  93 NW3       30.17R
MADISON        CLOUDY    24  19  81 NW6       30.19R WCI  17
MIDDLETON      CLOUDY    26  21  82 N7        30.19R WCI  18
WATERTOWN      CLOUDY    25  23  91 NW5       30.17R WCI  19
MONROE         CLOUDY    27  21  80 NW5       30.17R WCI  21
JANESVILLE     CLOUDY    28  23  80 W6        30.18R WCI  22
$$

WIZ051-052-058>065-066-070>072-240900-
SOUTHEAST WISCONSIN

CITY           SKY/WX    TMP DP  RH WIND       PRES   REMARKS
MILWAUKEE      CLOUDY    28  23  81 W7        30.17R WCI  21
WAUKESHA       CLOUDY    25  21  86 W6        30.17R WCI  18
MILWAUKEE/TIMM CLOUDY    27  21  80 NW5       30.18R WCI  21
RACINE         CLOUDY    26  23  88 W6        30.18R WCI  19
BURLINGTON     MOCLDY    26  21  82 W7        30.17R WCI  18
KENOSHA        CLOUDY    26  21  81 W6        30.17R WCI  19
FOND DU LAC    CLOUDY    23  13  65 N10       30.18R WCI  12
SHEBOYGAN      CLOUDY    21  16  81 N7        30.18R WCI  12
WEST BEND      CLOUDY    23  19  86 N7        30.16R WCI  15
JUNEAU         CLOUDY    24  19  80 N9        30.19R WCI  14
$$

LSZ147-162-240900-
LAKE SUPERIOR

STATION/POSITION TIME  TEMP    WIND        PRES    WAVE
                       AIR SEA DIR/SP/G            HT/PER
                 (UTC) (F)     (DEG/KT/KT) (MB)    (FT/S)
DEVILS ISLAND    0800   21     100/  9/ 10 1024.0R
SAXON HARBOR     0740   14     180/  3/  5 1022.0S
$$

LMZ867-665-643>646-240900-
LAKE MICHIGAN

STATION/POSITION TIME  TEMP    WIND        PRES    WAVE
                       AIR SEA DIR/SP/G            HT/PER
                 (UTC) (F)     (DEG/KT/KT) (MB)    (FT/S)
NORTHPORT PIER   0803   17     310/  7     1022.0
KEWAUNEE LAKESHO 0754   17     330/  8/ 11 1021.5R
SHEBOYGAN LAKESH 0800   23     360/ 13/ 16 1022.9R
PORT WASHINGTON  0740   25     330/  4/  9 1022.7R
MILWAUKEE LAKESH 0800   28     310/  5/  7   N/A
KENOSHA   LAKESH 0800   26     280/  7/ 10 1022.0
$$

TC  - TEMPERATURE IN CELSIUS
VSB - VISIBILITY IN STATUTE MILES
WCI - WIND CHILL INDEX
HX  - HEAT INDEX





USA.gov is the U.S. government's official web portal to all federal, state and local government web resources and services.